Regional Weather Roundup
Issued by NWS Northern Indiana

Home | Current Version | Previous Version | Text Only | Print | Product List | Glossary On
Versions: 1 2 3 4 5 6 7 8 9 10 11 12 13 14 15 16 17 18 19 20 21 22 23 24 25 26 27 28 29 30 31 32 33 34 35 36 37 38 39 40 41 42 43 44 45 46 47 48 49 50
000
ASUS43 KIWX 282110
RWRIWX

KIWX WEATHER ROUNDUP
NATIONAL WEATHER SERVICE NORTHERN INDIANA
400 PM EST SUN DEC 28 2014

NOTE: "FAIR" INDICATES FEW OR NO CLOUDS BELOW 12,000 FEET WITH NO
SIGNIFICANT WEATHER AND/OR OBSTRUCTIONS TO VISIBILITY.

* THESE STATIONS ARE NOT UNDER NWS QUALITY CONTROL. THEY ALSO MAY NOT
  REPORT WEATHER SUCH AS PRECIPITATION OR FOG.

INZ001>027-282200-
NORTHERN INDIANA

CITY           SKY/WX    TMP DP  RH WIND       PRES   REMARKS
GARY*          MOSUNNY   34  10  37 SW7       30.17R WCI  28
VALPARAISO     PTSUNNY   33  18  53 W5        30.17R WCI  29
MICHIGAN CITY* MOSUNNY   34   1  25 W5        30.17S WCI  30
LAPORTE*       PTSUNNY   36  21  55 W8        30.17R
KNOX*          PTSUNNY   33  22  66 W8        30.16R WCI  25
SOUTH BEND     PTSUNNY   35  22  58 NW9       30.16R WCI  28
ELKHART*       SUNNY     36  16  44 W7        30.15
GOSHEN         PTSUNNY   34  25  69 W8        30.14R WCI  27
MONTICELLO*    PTSUNNY   29  24  81 CALM      30.19R
LOGANSPORT*    CLOUDY    30  23  74 W3        30.20R
ROCHESTER*     PTSUNNY   34  28  80 W5        30.17R WCI  30
WARSAW*        PTSUNNY   32  27  80 W7        30.15R WCI  26
ANGOLA*        MOSUNNY   34  21  60 W8        30.12R WCI  27
FORT WAYNE     CLOUDY    34  27  75 W7        30.16R WCI  28
HUNTINGTON*    CLOUDY    32  24  72 W8        30.16R WCI  25
PERU/GRISSOM   CLOUDY    30  29  97 W5        30.18R WCI  25
MARION*        CLOUDY    31  26  83 W9        30.17R WCI  23

$$
INZ028>050-282200-
CENTRAL INDIANA

CITY           SKY/WX    TMP DP  RH WIND       PRES   REMARKS
LAFAYETTE      CLOUDY    29  23  78 W3        30.20R
KOKOMO*        CLOUDY    30  23  74 W7        30.18R WCI  23
MUNCIE*        CLOUDY    32  26  78 NW7       30.16R WCI  26
INDIANAPOLIS   CLOUDY    29  24  82 W6        30.17R WCI  23

$$
MIZ043>046-050>051-056>058-064>065-071>073-077>080-282200-
SOUTHWEST LOWER MICHIGAN

CITY           SKY/WX    TMP DP  RH WIND       PRES   REMARKS
BATTLE CREEK   PTSUNNY   34  20  56 W13       30.12R WCI  25
BENTON HARBOR  MOSUNNY   32  21  64 W12       30.16R WCI  23
COLDWATER*     PTSUNNY   34  21  59 NW9       30.12R WCI  27
HILLSDALE*     PTSUNNY   35  24  64 W6        30.10R WCI  30
HOLLAND        CLOUDY    33  22  63 W10       30.15R WCI  25
GRAND RAPIDS   MOCLDY    32  21  64 W13       30.12R WCI  22
KALAMAZOO      PTSUNNY   34  21  59 W10       30.13R WCI  26
STURGIS*       PTSUNNY   34  23  64 W10       30.12R WCI  26
THREE RIVERS*  FAIR      34  23  63 W13       30.13R WCI  25

$$
OHZ001>008-015>018-024>025-282200-
NORTHWEST OHIO

CITY           SKY/WX    TMP DP  RH WIND       PRES   REMARKS
WAUSEON*       FAIR      36  27  69 W9        30.12R
DEFIANCE       CLOUDY    36  25  64 W5        30.15R
FINDLAY        CLOUDY    37  27  67 W9        30.11S
TOLEDO EXPRESS CLOUDY    35  25  66 W9        30.12R WCI  28
TOLEDO METCALF CLOUDY    37  26  64 W9        30.12R
LIMA           CLOUDY    36  27  69 NW10      30.12R

$$
AND FOR LAKE MICHIGAN COASTAL AND OPEN LAKE BUOY OBSERVATIONS

STATION/POSITION TEMP    WIND        PRES    VSBY  WAVE
                 AIR SEA DIR/SP/G                  HT/PER
                 (F)     (DEG/KT/KT) (MB)    (MI)  (FT/S)
CALUMET HARBOR    34     250/  4/  8 1020.2R
MICHIGAN CITY     32     220/ 10/ 11   N/A
SAINT JOSEPH      34     250/  9/ 10 1022.0R
MICHIGAN CITY CG     36                N/A       6   1

$$
&&


USA.gov is the U.S. government's official web portal to all federal, state and local government web resources and services.